IRIDIUM 138 (43071 NORAD) Tracking and Keplerian Element Data

This shows tracking and keplerian element data for the satellite.

Feedback or suggestion? Click here.




ElementValue
Catalog43071
NameIRIDIUM 138
Epoch Orbit430
Epoch Day21.54824776
Epoch Year2018
RAAN164.4196
Inclination86.3989
Eccentricity0.0002041
Argument of Perigee88.6801
Mean Anonmoly271.4629
Mean Motion14.34217992
Decay Rate7.9E-07
L11 43071U 17083B 18021.54824776 .00000079 00000-0 21044-4 0 9990
L22 43071 86.3989 164.4196 0002041 88.6801 271.4629 14.34217992 4309

Live tracking and technical data element details for IRIDIUM 138 (NORAD 43071). IRIDIUM 138 can be tracked NOW for your location showing map with azimuth and elevation plus other details from your city location.

Track the satellite on the map from your city or location and see movement details for azimuth, elevation, latitude, longitude, range, height, and movement on the map or in text.







IsCatalogInMostPopularTable: catalog: 43071, numindb: 165
Update: records affected: 1



GetName: 43071 IRIDIUM 138

Hit Count: updated at: Sat, 15 Dec 2018 18:35:40 GMT